Weather History for Ellsworth AFB, SD

Change the Weather History Date:

Friday, January 24, 2014

  Actual Average Record
Temperature  
Mean Temperature 40 °F -  
Max Temperature 55 °F 35 °F 73 °F (2005)
Min Temperature 26 °F 14 °F -7 °F (1997)
Degree Days  
Heating Degree Days 24    
Moisture  
Dew Point 29 °F    
Average Humidity 51    
Maximum Humidity 62    
Minimum Humidity 38    
Precipitation  
Precipitation 0.01 in - - ()
Sea Level Pressure  
Sea Level Pressure 29.99 in    
Wind  
Wind Speed 27 mph (NNW)    
Max Wind Speed 43 mph    
Max Gust Speed 56 mph    
Visibility 10 miles    
Events      
Averages and records for this station are not official NWS values.
T = Trace of Precipitation, MM = Missing Value Source: NWS Daily Summary

Daily Weather History Graph

Daily Weather History Graph

Search for Another Location

Airport:

Trip Planner

Search our weather history database for the weather conditions in past years. The results will help you decide how hot, cold, wet, or windy it might be!

Date:

Astronomy

Jan. 24, 2014 Rise Set
Actual Time 7:18 AM MST 4:51 PM MST
Civil Twilight 6:46 AM MST 5:22 PM MST
Nautical Twilight 6:11 AM MST 5:58 PM MST
Astronomical Twilight 5:37 AM MST 6:32 PM MST
Moon 12:44 AM MST (1/24) 11:13 AM MST (1/24)
Length of Visible Light 10h 36m
Length of Day
9h 33m
Last Quarter, 44% of the Moon is Illuminated
Jan 24
Last Quarter
Jan 30
New
Feb 6
First Quarter
Feb 14
Full
Feb 22
Last Quarter

Hourly Weather History & Observations

Time (MST) Temp. Windchill Dew Point Humidity Pressure Visibility Wind Dir Wind Speed Gust Speed Precip Events Conditions
12:58 AM 26.8 °F 19.3 °F 9.0 °F 47% 30.16 in 10.0 mi NW 6.9 mph - N/A   Overcast
1:58 AM 42.3 °F 31.6 °F 20.3 °F 42% 30.08 in 10.0 mi NW 29.9 mph 35.7 mph N/A   Overcast
2:58 AM 42.1 °F 31.9 °F 22.5 °F 46% 30.09 in 10.0 mi NW 26.5 mph 39.1 mph N/A   Overcast
3:58 AM 40.6 °F 30.0 °F 28.4 °F 62% 30.08 in 10.0 mi NNW 26.5 mph 36.8 mph N/A   Overcast
4:58 AM 42.1 °F 31.5 °F 26.8 °F 55% 30.06 in 10.0 mi NNW 28.8 mph 40.3 mph N/A   Mostly Cloudy
5:58 AM 42.4 °F 31.8 °F 28.4 °F 58% 30.07 in 10.0 mi NNW 29.9 mph 41.4 mph N/A   Overcast
6:58 AM 43.3 °F 33.2 °F 29.1 °F 57% 30.08 in 10.0 mi NNW 28.8 mph 40.3 mph N/A   Overcast
7:58 AM 43.7 °F 33.3 °F 30.9 °F 61% 30.06 in 10.0 mi NNW 31.1 mph 40.3 mph N/A   Overcast
8:58 AM 46.8 °F - 29.8 °F 52% 30.04 in 10.0 mi NW 28.8 mph 41.4 mph N/A   Mostly Cloudy
9:58 AM 49.1 °F - 29.5 °F 47% 30.02 in 10.0 mi NW 32.2 mph 43.7 mph N/A   Scattered Clouds
10:58 AM 51.4 °F - 31.5 °F 46% 30.01 in 10.0 mi NW 34.5 mph 44.9 mph N/A   Scattered Clouds
11:58 AM 53.4 °F - 32.0 °F 44% 29.96 in 10.0 mi NNW 39.1 mph 46.0 mph N/A   Scattered Clouds
12:58 PM 53.8 °F - 32.0 °F 44% 29.93 in 10.0 mi NW 33.4 mph 39.1 mph N/A   Mostly Cloudy
1:58 PM 55.9 °F - 31.8 °F 40% 29.86 in 10.0 mi NW 36.8 mph 48.3 mph N/A   Mostly Cloudy
2:58 PM 55.2 °F - 30.2 °F 38% 29.83 in 10.0 mi NW 42.6 mph 56.4 mph 0.01 in   Partly Cloudy
3:58 PM 52.2 °F - 30.2 °F 43% 29.89 in 10.0 mi NNW 41.4 mph 51.8 mph N/A   Clear
4:58 PM 49.5 °F - 30.2 °F 48% 29.91 in 10.0 mi NNW 31.1 mph 42.6 mph N/A   Scattered Clouds
5:58 PM 48.0 °F - 30.4 °F 51% 29.92 in 10.0 mi NNW 32.2 mph 41.4 mph N/A   Clear
6:58 PM 46.4 °F 36.3 °F 30.9 °F 55% 29.93 in 10.0 mi NNW 36.8 mph 50.6 mph N/A   Clear
7:58 PM 46.2 °F 36.0 °F 31.1 °F 56% 29.92 in 10.0 mi NNW 36.8 mph 46.0 mph N/A   Partly Cloudy
8:58 PM 45.7 °F 36.2 °F 30.6 °F 56% 29.93 in 10.0 mi NNW 29.9 mph 43.7 mph N/A   Clear
9:58 PM 46.0 °F 35.8 °F 30.6 °F 55% 29.92 in 10.0 mi NNW 36.8 mph 44.9 mph N/A   Scattered Clouds
10:58 PM 45.3 °F 35.1 °F 30.7 °F 57% 29.94 in 10.0 mi NNW 34.5 mph 48.3 mph N/A   Partly Cloudy
11:58 PM 45.5 °F 36.3 °F 31.1 °F 57% 29.97 in 10.0 mi NNW 27.6 mph 38.0 mph N/A   Overcast